{"data":{"norad_id":57340,"epoch":"2026-09-20T14:52:05.377152Z","epoch_age_seconds":113797,"freshness":"FRESH","line1":"1 57340U 23099N   26263.61950668 -.00000500  00000+0 -86751-5 0  9990","line2":"2 57340  43.0013 231.9404 0000285  87.0658 273.0226 15.27575021175880","mean_motion":15.27575021,"eccentricity":2.85e-5,"inclination_deg":43.0013,"raan_deg":231.9404,"arg_perigee_deg":87.0658,"mean_anomaly_deg":273.0226,"bstar":-8.6751e-6,"rev_number":17588,"period_min":94.267055968049,"perigee_km":482.86846076869,"apogee_km":483.25954922598,"semimajor_km":6861.2010049973,"source":"CELESTRAK","updated_at":"2026-09-21T09:00:33.598313Z"}}